N5KR Weather Reports


Display with metric or nautical units.
time (UTC)temp
F
wind
direction
speed
MPH
gust
MPH
rain 1hr
in
rain 24hr
in
rain mn
in
humidity
%
barometer
mb
20260905205005 99 109 2.0 9.0 0.00 0.00 0.00 39 1012.5
20260905204505 98 165 5.0 10.0 0.00 0.00 0.00 41 1012.4
20260905204005 98 213 1.0 3.0 0.00 0.00 0.00 41 1012.6
20260905203505 99 149 5.0 9.0 0.00 0.00 0.00 41 1012.6
20260905203005 98 163 1.0 2.0 0.00 0.00 0.00 40 1012.7
20260905202505 97 163 4.0 10.0 0.00 0.00 0.00 42 1012.7
20260905202005 95 194 1.0 6.0 0.00 0.00 0.00 44 1012.9
20260905201005 97 107 3.0 8.0 0.00 0.00 0.00 42 1013.0
20260905200505 99 117 5.0 12.0 0.00 0.00 0.00 43 1012.9
20260905200005 96 192 2.0 12.0 0.00 0.00 0.00 44 1013.0
20260905195005 98 10 2.0 7.0 0.00 0.00 0.00 41 1013.3
20260905194505 98 162 6.0 10.0 0.00 0.00 0.00 42 1013.3
20260905194004 97 157 5.0 10.0 0.00 0.00 0.00 43 1013.3
20260905193505 95 107 4.0 10.0 0.00 0.00 0.00 45 1013.4
20260905193005 96 99 1.0 9.0 0.00 0.00 0.00 44 1013.5
20260905191504 96 109 3.0 9.0 0.00 0.00 0.00 45 1013.9
20260905191005 97 165 2.0 8.0 0.00 0.00 0.00 44 1014.1
20260905190505 99 202 3.0 8.0 0.00 0.00 0.00 42 1014.2
20260905190005 99 172 5.0 10.0 0.00 0.00 0.00 44 1014.1
20260905185505 98 181 4.0 9.0 0.00 0.00 0.00 44 1014.3
20260905184505 98 355 3.0 9.0 0.00 0.00 0.00 44 1014.5
20260905184005 97 113 6.0 12.0 0.00 0.00 0.00 45 1014.5
20260905183505 96 103 4.0 10.0 0.00 0.00 0.00 46 1014.6
20260905183005 96 56 3.0 6.0 0.00 0.00 0.00 46 1014.7
20260905182505 97 159 4.0 12.0 0.00 0.00 0.00 46 1014.8
20260905180505 97 164 6.0 13.0 0.00 0.00 0.00 45 1014.9
20260905180005 97 169 6.0 17.0 0.00 0.00 0.00 44 1015.1
20260905175504 96 163 2.0 8.0 0.00 0.00 0.00 46 1015.2
20260905175005 96 114 2.0 9.0 0.00 0.00 0.00 44 1015.3
20260905174505 96 175 7.0 13.0 0.00 0.00 0.00 45 1015.3
20260905174004 95 121 5.0 9.0 0.00 0.00 0.00 48 1015.4
20260905173505 95 94 2.0 9.0 0.00 0.00 0.00 49 1015.4
20260905173005 95 175 4.0 8.0 0.00 0.00 0.00 48 1015.4
20260905172005 95 59 4.0 6.0 0.00 0.00 0.00 48 1015.6
20260905171505 95 106 2.0 7.0 0.00 0.00 0.00 49 1015.6
20260905170505 95 167 3.0 6.0 0.00 0.00 0.00 48 1015.8
20260905170005 94 203 2.0 6.0 0.00 0.00 0.00 51 1015.8
20260905165005 94 91 4.0 9.0 0.00 0.00 0.00 50 1015.7
20260905164505 94 131 3.0 9.0 0.00 0.00 0.00 49 1015.7
20260905164005 94 119 5.0 9.0 0.00 0.00 0.00 50 1015.7
20260905163505 94 167 3.0 6.0 0.00 0.00 0.00 50 1015.8
20260905163005 93 211 1.0 5.0 0.00 0.00 0.00 50 1015.8
20260905162505 93 184 4.0 9.0 0.00 0.00 0.00 52 1015.8
20260905162005 93 147 3.0 6.0 0.00 0.00 0.00 52 1015.8
20260905161505 93 213 3.0 8.0 0.00 0.00 0.00 52 1015.8
20260905161004 93 250 2.0 8.0 0.00 0.00 0.00 52 1015.7
20260905160504 93 200 3.0 9.0 0.00 0.00 0.00 51 1015.7
20260905160005 92 217 2.0 7.0 0.00 0.00 0.00 54 1015.7
20260905155505 91 342 2.0 3.0 0.00 0.00 0.00 55 1015.7
20260905155005 91 269 3.0 7.0 0.00 0.00 0.00 56 1015.7
20260905154004 91 275 3.0 9.0 0.00 0.00 0.00 55 1015.6
20260905153505 90 238 1.0 8.0 0.00 0.00 0.00 57 1015.7
20260905153004 91 152 2.0 8.0 0.00 0.00 0.00 56 1015.7
20260905152504 91 281 5.0 9.0 0.00 0.00 0.00 58 1015.7
20260905152004 90 254 2.0 6.0 0.00 0.00 0.00 59 1015.6
20260905151505 89 250 1.0 9.0 0.00 0.00 0.00 59 1015.6
20260905150505 89 247 2.0 9.0 0.00 0.00 0.00 60 1015.6
20260905150004 89 254 2.0 9.0 0.00 0.00 0.00 60 1015.6
20260905145504 89 257 1.0 9.0 0.00 0.00 0.00 62 1015.6
20260905145004 89 248 3.0 8.0 0.00 0.00 0.00 62 1015.5
20260905144504 88 293 5.0 10.0 0.00 0.00 0.00 63 1015.6
20260905144004 88 255 2.0 6.0 0.00 0.00 0.00 63 1015.6
20260905142504 87 223 5.0 9.0 0.00 0.00 0.00 64 1015.4
20260905142004 87 247 4.0 8.0 0.00 0.00 0.00 65 1015.5
20260905141504 87 255 3.0 6.0 0.00 0.00 0.00 66 1015.4
20260905141005 86 247 3.0 9.0 0.00 0.00 0.00 67 1015.4
20260905140504 86 239 5.0 8.0 0.00 0.00 0.00 67 1015.5
20260905140005 86 239 2.0 8.0 0.00 0.00 0.00 68 1015.4
20260905135504 86 240 1.0 5.0 0.00 0.00 0.00 68 1015.5
20260905134504 85 245 2.0 5.0 0.00 0.00 0.00 70 1015.4
20260905134004 85 248 2.0 5.0 0.00 0.00 0.00 70 1015.4
20260905133004 84 263 2.0 7.0 0.00 0.00 0.00 71 1015.2
20260905132504 83 267 2.0 7.0 0.00 0.00 0.00 72 1015.2
20260905132004 83 243 3.0 6.0 0.00 0.00 0.00 72 1015.1
20260905131504 82 217 0.0 2.0 0.00 0.00 0.00 74 1015.0
20260905131004 82 202 0.0 0.0 0.00 0.00 0.00 74 1015.0
20260905130504 81 204 0.0 0.0 0.00 0.00 0.00 75 1015.0
20260905130004 81 231 0.0 0.0 0.00 0.00 0.00 76 1014.9
20260905125505 80 231 0.0 0.0 0.00 0.00 0.00 77 1014.9
20260905125004 80 231 0.0 0.0 0.00 0.00 0.00 78 1015.0
20260905124504 80 231 0.0 0.0 0.00 0.00 0.00 78 1014.8
20260905124004 79 231 0.0 0.0 0.00 0.00 0.00 78 1014.7
20260905123504 79 231 0.0 0.0 0.00 0.00 0.00 79 1014.7
20260905123004 79 231 0.0 0.0 0.00 0.00 0.00 79 1014.6
20260905122504 79 230 0.0 0.0 0.00 0.00 0.00 79 1014.5
20260905121004 78 231 0.0 0.0 0.00 0.00 0.00 79 1014.5
20260905120504 78 231 0.0 0.0 0.00 0.00 0.00 79 1014.5
20260905115005 78 231 0.0 0.0 0.00 0.00 0.00 79 1014.4
20260905114504 78 231 0.0 0.0 0.00 0.00 0.00 79 1014.4
20260905114004 79 231 0.0 0.0 0.00 0.00 0.00 78 1014.4
20260905113505 79 231 0.0 0.0 0.00 0.00 0.00 78 1014.4
20260905112504 79 231 0.0 0.0 0.00 0.00 0.00 77 1014.3
20260905112004 79 231 0.0 0.0 0.00 0.00 0.00 77 1014.4
20260905111503 79 231 0.0 0.0 0.00 0.00 0.00 77 1014.3
20260905111003 79 231 0.0 0.0 0.00 0.00 0.00 77 1014.4
20260905110504 79 231 0.0 0.0 0.00 0.00 0.00 77 1014.5
20260905110004 79 231 0.0 0.0 0.00 0.00 0.00 76 1014.5
20260905105504 79 231 0.0 0.0 0.00 0.00 0.00 76 1014.4
20260905105004 80 231 0.0 0.0 0.00 0.00 0.00 76 1014.4
20260905104504 80 231 0.0 0.0 0.00 0.00 0.00 75 1014.4
20260905104004 80 231 0.0 1.0 0.00 0.00 0.00 75 1014.5
20260905103004 80 231 0.0 1.0 0.00 0.00 0.00 75 1014.6
20260905102004 80 231 0.0 0.0 0.00 0.00 0.00 74 1014.5
20260905101503 80 231 0.0 0.0 0.00 0.00 0.00 74 1014.4
20260905101004 81 231 1.0 2.0 0.00 0.00 0.00 73 1014.3
20260905100003 81 231 0.0 3.0 0.00 0.00 0.00 72 1014.4
20260905095504 82 231 0.0 3.0 0.00 0.00 0.00 71 1014.4
20260905095004 82 231 1.0 3.0 0.00 0.00 0.00 71 1014.4
20260905094503 82 201 2.0 3.0 0.00 0.00 0.00 71 1014.4
20260905094003 82 248 1.0 7.0 0.00 0.00 0.00 70 1014.3
20260905093503 82 244 1.0 5.0 0.00 0.00 0.00 70 1014.2
20260905093004 82 209 2.0 8.0 0.00 0.00 0.00 70 1014.1
20260905092504 82 198 2.0 7.0 0.00 0.00 0.00 70 1014.2
20260905092004 82 217 1.0 8.0 0.00 0.00 0.00 71 1014.0
20260905091504 82 264 0.0 0.0 0.00 0.00 0.00 71 1014.1
20260905091003 82 207 0.0 2.0 0.00 0.00 0.00 70 1014.2
20260905090504 82 207 1.0 3.0 0.00 0.00 0.00 70 1014.1
20260905090004 82 207 0.0 2.0 0.00 0.00 0.00 70 1014.0
20260905085504 82 194 0.0 0.0 0.00 0.00 0.00 69 1014.0
20260905085007 83 213 0.0 2.0 0.00 0.00 0.00 69 1013.9
20260905084506 83 253 1.0 3.0 0.00 0.00 0.00 68 1013.9
20260905084007 83 275 1.0 3.0 0.00 0.00 0.00 68 1013.9
20260905083506 83 197 2.0 3.0 0.00 0.00 0.00 68 1014.1
20260905082006 83 210 0.0 2.0 0.00 0.00 0.00 69 1014.0
20260905081507 82 216 1.0 5.0 0.00 0.00 0.00 69 1013.9
20260905081007 82 199 1.0 5.0 0.00 0.00 0.00 70 1013.9
20260905080506 82 259 1.0 3.0 0.00 0.00 0.00 69 1013.9
20260905080006 83 196 0.0 2.0 0.00 0.00 0.00 68 1014.0
20260905075506 83 196 0.0 2.0 0.00 0.00 0.00 67 1013.9
20260905075007 83 196 0.0 0.0 0.00 0.00 0.00 67 1013.9
20260905074506 84 196 0.0 2.0 0.00 0.00 0.00 66 1013.9
20260905074006 84 196 2.0 3.0 0.00 0.00 0.00 66 1014.0
20260905073007 84 192 1.0 3.0 0.00 0.00 0.00 66 1014.2
20260905072506 84 192 1.0 8.0 0.00 0.00 0.00 66 1014.2
20260905072006 84 197 1.0 6.0 0.00 0.00 0.00 66 1014.2
20260905071506 84 227 0.0 3.0 0.00 0.00 0.00 66 1014.2
20260905071006 84 173 3.0 6.0 0.00 0.00 0.00 65 1014.1
20260905070506 85 173 2.0 7.0 0.00 0.00 0.00 65 1014.3
20260905065506 85 180 2.0 6.0 0.00 0.00 0.00 65 1014.3
20260905065006 85 178 2.0 3.0 0.00 0.00 0.00 65 1014.3
20260905064507 85 172 3.0 6.0 0.00 0.00 0.00 66 1014.3
20260905064006 85 186 0.0 7.0 0.00 0.00 0.00 65 1014.3
20260905063506 85 195 2.0 6.0 0.00 0.00 0.00 65 1014.3
20260905063006 85 167 2.0 7.0 0.00 0.00 0.00 65 1014.3
20260905062506 85 173 3.0 9.0 0.00 0.00 0.00 65 1014.3
20260905061007 86 187 2.0 7.0 0.00 0.00 0.00 64 1014.2
20260905060506 86 199 2.0 7.0 0.00 0.00 0.00 64 1014.3
20260905060006 86 177 3.0 8.0 0.00 0.00 0.00 63 1014.3
20260905055506 86 215 1.0 5.0 0.00 0.00 0.00 63 1014.3
20260905055006 86 196 2.0 7.0 0.00 0.00 0.00 63 1014.2
20260905054506 86 184 3.0 8.0 0.00 0.00 0.00 63 1014.2
20260905054006 86 196 1.0 9.0 0.00 0.00 0.00 63 1014.2
20260905053506 86 195 2.0 5.0 0.00 0.00 0.00 63 1014.2
20260905053006 86 194 2.0 6.0 0.00 0.00 0.00 62 1014.2
20260905052506 86 195 2.0 6.0 0.00 0.00 0.00 62 1014.1
20260905052006 86 198 2.0 6.0 0.00 0.00 0.00 62 1014.0
20260905051506 87 199 1.0 5.0 0.00 0.00 0.00 62 1014.1
20260905051006 87 190 3.0 9.0 0.00 0.00 0.00 61 1014.1
20260905050506 87 183 2.0 7.0 0.00 0.00 0.00 61 1014.1
20260905050006 87 179 2.0 6.0 0.00 0.00 0.00 61 1014.0
20260905045506 87 229 2.0 5.0 0.00 0.00 0.00 60 1014.1
20260905045006 87 219 1.0 5.0 0.00 0.00 0.00 60 1014.2
20260905044006 87 167 3.0 8.0 0.00 0.00 0.00 59 1014.0
20260905043506 87 192 3.0 7.0 0.00 0.00 0.00 59 1014.1
20260905042506 88 188 4.0 8.0 0.00 0.00 0.00 58 1014.1
20260905042006 88 159 4.0 9.0 0.00 0.00 0.00 58 1014.0
20260905041506 88 178 5.0 10.0 0.00 0.00 0.00 58 1014.0
20260905041006 88 202 6.0 12.0 0.00 0.00 0.00 57 1014.1
20260905040506 88 190 7.0 13.0 0.00 0.00 0.00 57 1014.0
20260905040006 88 172 7.0 13.0 0.00 0.00 0.00 57 1014.0
20260905035505 88 166 6.0 12.0 0.00 0.00 0.00 56 1014.0
20260905034506 88 180 5.0 10.0 0.00 0.00 0.00 57 1014.1
20260905034006 88 155 1.0 5.0 0.00 0.00 0.00 57 1014.0
20260905033506 88 159 3.0 6.0 0.00 0.00 0.00 56 1014.0
20260905032006 89 155 2.0 6.0 0.00 0.00 0.00 55 1014.0
20260905031506 89 167 2.0 6.0 0.00 0.00 0.00 55 1014.0
20260905031006 89 155 2.0 7.0 0.00 0.00 0.00 55 1013.9
20260905030505 89 169 1.0 7.0 0.00 0.00 0.00 54 1013.9
20260905030006 89 151 2.0 6.0 0.00 0.00 0.00 54 1013.9
20260905025505 89 162 3.0 7.0 0.00 0.00 0.00 54 1013.9
20260905025005 90 166 5.0 10.0 0.00 0.00 0.00 53 1013.8
20260905024506 90 165 5.0 9.0 0.00 0.00 0.00 53 1013.8
20260905024006 90 161 3.0 9.0 0.00 0.00 0.00 53 1013.6
20260905023506 90 156 1.0 10.0 0.00 0.00 0.00 53 1013.6
20260905023006 90 167 2.0 9.0 0.00 0.00 0.00 52 1013.4
20260905022506 90 155 4.0 9.0 0.00 0.00 0.00 52 1013.4
20260905021506 90 165 3.0 10.0 0.00 0.00 0.00 51 1013.1
20260905020505 91 168 4.0 8.0 0.00 0.00 0.00 50 1013.0
20260905015005 91 163 4.0 12.0 0.00 0.00 0.00 49 1012.9
20260905014506 91 152 3.0 10.0 0.00 0.00 0.00 49 1012.8
20260905014005 91 158 5.0 10.0 0.00 0.00 0.00 49 1012.7
20260905013505 92 160 6.0 10.0 0.00 0.00 0.00 48 1012.7
20260905013005 92 151 6.0 13.0 0.00 0.00 0.00 48 1012.6
20260905012505 92 166 4.0 8.0 0.00 0.00 0.00 48 1012.6
20260905012006 92 142 6.0 16.0 0.00 0.00 0.00 48 1012.6
20260905011505 92 157 5.0 9.0 0.00 0.00 0.00 48 1012.6
20260905011005 92 144 5.0 13.0 0.00 0.00 0.00 47 1012.6
20260905010505 92 158 6.0 10.0 0.00 0.00 0.00 47 1012.4
20260905010005 92 150 5.0 12.0 0.00 0.00 0.00 48 1012.4
20260905005506 92 134 5.0 10.0 0.00 0.00 0.00 48 1012.4
20260905005006 93 152 5.0 10.0 0.00 0.00 0.00 48 1012.3
20260905004506 93 139 6.0 10.0 0.00 0.00 0.00 48 1012.3
20260905004006 93 156 5.0 10.0 0.00 0.00 0.00 47 1012.3
20260905003505 93 150 4.0 13.0 0.00 0.00 0.00 47 1012.2
20260905003005 93 142 6.0 14.0 0.00 0.00 0.00 47 1012.0
20260905002505 93 141 5.0 12.0 0.00 0.00 0.00 48 1011.9
20260905002006 93 147 4.0 9.0 0.00 0.00 0.00 47 1011.9
20260905001505 93 122 6.0 13.0 0.00 0.00 0.00 47 1011.9
20260905000005 94 164 6.0 12.0 0.00 0.00 0.00 47 1012.0
20260904235506 94 133 7.0 15.0 0.00 0.00 0.00 47 1011.9
20260904235006 94 124 5.0 12.0 0.00 0.00 0.00 47 1012.0
20260904234505 94 139 2.0 12.0 0.00 0.00 0.00 47 1012.0
20260904234006 94 134 3.0 14.0 0.00 0.00 0.00 47 1011.8
20260904233505 94 156 7.0 14.0 0.00 0.00 0.00 47 1011.8
20260904233005 94 117 6.0 12.0 0.00 0.00 0.00 47 1011.8
20260904232505 94 164 5.0 10.0 0.00 0.00 0.00 48 1011.8
20260904232005 94 130 5.0 13.0 0.00 0.00 0.00 47 1011.9
20260904231505 94 169 9.0 14.0 0.00 0.00 0.00 48 1011.8
20260904231005 94 173 6.0 13.0 0.00 0.00 0.00 48 1011.9
20260904230005 95 141 5.0 13.0 0.00 0.00 0.00 47 1011.8
20260904225505 95 137 6.0 13.0 0.00 0.00 0.00 46 1011.8
20260904225005 96 148 6.0 13.0 0.00 0.00 0.00 46 1011.9
20260904223505 95 125 7.0 13.0 0.00 0.00 0.00 46 1012.0
20260904223005 96 175 9.0 13.0 0.00 0.00 0.00 45 1011.8
20260904222505 96 159 3.0 9.0 0.00 0.00 0.00 44 1011.8
20260904222005 96 171 4.0 13.0 0.00 0.00 0.00 44 1011.9
20260904221505 96 158 6.0 13.0 0.00 0.00 0.00 44 1011.8
20260904221005 96 165 3.0 6.0 0.00 0.00 0.00 45 1011.9
20260904220505 97 192 7.0 13.0 0.00 0.00 0.00 44 1012.0
20260904220005 97 169 6.0 10.0 0.00 0.00 0.00 43 1011.9
20260904215505 97 170 5.0 13.0 0.00 0.00 0.00 43 1012.1
20260904215005 96 169 5.0 12.0 0.00 0.00 0.00 44 1012.1
20260904214505 96 145 5.0 10.0 0.00 0.00 0.00 45 1012.2
20260904214006 95 179 7.0 10.0 0.00 0.00 0.00 46 1012.1
20260904213505 95 165 9.0 13.0 0.00 0.00 0.00 45 1012.2
20260904212505 96 159 4.0 13.0 0.00 0.00 0.00 45 1012.2
20260904212005 96 155 8.0 13.0 0.00 0.00 0.00 44 1012.4
20260904211505 97 138 5.0 13.0 0.00 0.00 0.00 43 1012.3
20260904211005 98 173 9.0 13.0 0.00 0.00 0.00 42 1012.5
20260904210005 97 151 7.0 13.0 0.00 0.00 0.00 44 1012.5
20260904205505 98 164 10.0 16.0 0.00 0.00 0.00 44 1012.5